This is the latest recevied weather packets stored in our database for station/object K1KOF. If no packets are shown the sender has not sent any weather packets the latest 10 day(s).
| Time | Temp. | Humidity | Pressure | Rain* | Wind** | Luminosity | Snow |
|---|---|---|---|---|---|---|---|
| 1777616085 | 17.78° C | 53% | 1022.7 hPa | 0 mm | - | 0 W/m² | - |
| 1777615782 | 17.78° C | 54% | 1022.8 hPa | 0 mm | - | 0 W/m² | - |
| 1777615479 | 17.78° C | 55% | 1022.8 hPa | 0 mm | - | 0 W/m² | - |
| 1777615178 | 17.78° C | 54% | 1022.8 hPa | 0 mm | - | 0 W/m² | - |
| 1777614874 | 17.78° C | 53% | 1023 hPa | 0 mm | - | 0 W/m² | - |
| 1777614571 | 17.78° C | 54% | 1023 hPa | 0 mm | - | 0 W/m² | - |
| 1777614266 | 17.78° C | 55% | 1023.1 hPa | 0 mm | - | 0 W/m² | - |
| 1777613961 | 17.78° C | 53% | 1023.1 hPa | 0 mm | - | 0 W/m² | - |
| 1777613658 | 17.78° C | 55% | 1023 hPa | 0 mm | - | 0 W/m² | - |
| 1777613356 | 17.78° C | 54% | 1023.1 hPa | 0 mm | - | 0 W/m² | - |
| 1777613052 | 18.33° C | 55% | 1022.9 hPa | 0 mm | - | 0 W/m² | - |
| 1777612749 | 18.33° C | 54% | 1023.1 hPa | 0 mm | - | 0 W/m² | - |
| 1777612444 | 18.33° C | 55% | 1023 hPa | 0 mm | - | 0 W/m² | - |
| 1777612140 | 18.33° C | 57% | 1022.8 hPa | 0 mm | - | 0 W/m² | - |
| 1777611835 | 18.33° C | 56% | 1022.8 hPa | 0 mm | - | 0 W/m² | - |
| 1777611531 | 18.33° C | 57% | 1023 hPa | 0 mm | - | 0 W/m² | - |
| 1777611228 | 18.89° C | 56% | 1023 hPa | 0 mm | - | 0 W/m² | - |
| 1777610925 | 18.89° C | 58% | 1022.8 hPa | 0 mm | - | 0 W/m² | - |
| 1777610620 | 18.89° C | 60% | 1022.8 hPa | 0 mm | - | 0 W/m² | - |
| 1777610319 | 18.89° C | 59% | 1022.6 hPa | 0 mm | - | 0 W/m² | - |
| 1777610016 | 18.89° C | 58% | 1022.4 hPa | 0 mm | - | 0 W/m² | - |
| 1777609712 | 18.89° C | 58% | 1022.3 hPa | 0 mm | - | 0 W/m² | - |
| 1777609409 | 18.89° C | 58% | 1022.2 hPa | 0 mm | - | 0 W/m² | - |
| 1777609107 | 18.89° C | 58% | 1022.1 hPa | 0 mm | - | 0 W/m² | - |
| 1777608804 | 18.33° C | 62% | 1022.7 hPa | 0 mm | - | 0 W/m² | - |
* Rain latest hour (hover to see other rain measurements)
** Current wind speed in m/s (hover to see current wind gust speed)